Location: Lecco
(45.8566°N, 9.3977°E)
Time: 05:56:03
(UTC+02:00)

Transit 2A - All Passes

Search period start: 08 August 2020 00:00
Search period end: 18 August 2020 00:00
Orbit: 591 x 967 km, 66.7° (Epoch: 07 August)

Date Brightness Start Highest point End Pass type
(mag) Time Alt. Az. Time Alt. Az. Time Alt. Az.
08 Aug - 00:32:42 10° WNW 00:36:52 19° NNW 00:41:12 10° NNE visible
08 Aug - 02:21:35 10° NNW 02:22:55 11° N 02:24:16 10° N visible
08 Aug - 04:05:22 10° NNW 04:09:07 16° NNE 04:12:50 10° ENE visible
08 Aug - 05:48:00 10° NNW 05:54:07 44° NE 05:59:57 10° ESE daylight
08 Aug - 07:31:30 10° NW 07:37:24 42° WSW 07:42:59 10° S daylight
08 Aug - 20:31:24 10° SSE 20:35:28 20° ESE 20:39:45 10° ENE daylight
08 Aug - 22:12:09 10° SW 22:17:58 78° NW 22:24:18 10° NNE visible
08 Aug - 23:57:39 10° W 00:02:19 22° NNW 00:07:10 10° NNE visible
09 Aug - 01:46:25 10° NNW 01:48:10 11° N 01:49:54 10° N visible
09 Aug - 03:31:20 10° N 03:34:27 14° NNE 03:37:33 10° NE visible
09 Aug - 05:13:55 10° NNW 05:19:45 35° NE 05:25:20 10° ESE visible
09 Aug - 06:57:10 10° NW 07:03:24 57° WSW 07:09:14 10° SSE daylight
09 Aug - 19:58:49 10° SE 20:01:39 14° E 20:04:34 10° ENE daylight
09 Aug - 21:38:00 10° SSW 21:43:48 79° ESE 21:50:07 10° NE visible
09 Aug - 23:22:45 10° W 23:27:49 27° NW 23:33:08 10° NNE visible
10 Aug - 01:11:05 10° NW 01:13:24 12° NNW 01:15:46 10° N visible
10 Aug - 02:57:16 10° N 02:59:44 12° NNE 03:02:12 10° NE visible
10 Aug - 04:39:53 10° NNW 04:45:19 28° NE 04:50:34 10° E visible
10 Aug - 06:22:54 10° NW 06:29:18 78° WSW 06:35:17 10° SSE daylight
10 Aug - 08:08:25 10° WNW 08:11:28 14° W 08:14:26 10° SW daylight
10 Aug - 21:04:03 10° SSW 21:09:42 58° ESE 21:15:51 10° NE visible
10 Aug - 22:47:58 10° WSW 22:53:22 34° NW 22:59:05 10° NNE visible
11 Aug - 00:35:45 10° NW 00:38:42 13° NNW 00:41:42 10° N visible
11 Aug - 02:23:08 10° N 02:25:00 11° N 02:26:52 10° NNE visible
11 Aug - 04:05:50 10° NNW 04:10:49 23° NE 04:15:40 10° E visible
11 Aug - 05:48:42 10° NNW 05:55:08 80° NE 06:01:09 10° SE daylight
11 Aug - 07:33:15 10° WNW 07:37:39 20° WSW 07:41:51 10° SSW daylight
11 Aug - 20:30:17 10° S 20:35:41 42° ESE 20:41:31 10° NE daylight
11 Aug - 22:13:20 10° WSW 22:18:58 43° NW 22:25:01 10° NNE visible
12 Aug - 00:00:28 10° WNW 00:04:02 15° NNW 00:07:39 10° NNE visible
12 Aug - 01:48:50 10° N 01:50:15 11° N 01:51:40 10° NNE visible
12 Aug - 03:31:49 10° NNW 03:36:16 19° NNE 03:40:37 10° ENE visible
12 Aug - 05:14:33 10° NNW 05:20:54 61° NE 05:26:52 10° SE visible
12 Aug - 06:58:31 10° NW 07:03:45 28° WSW 07:08:43 10° SSW daylight
12 Aug - 19:56:45 10° SSE 20:01:43 30° ESE 20:07:03 10° NE daylight
12 Aug - 21:38:51 10° SW 21:44:40 56° NW 21:50:54 10° NNE visible
12 Aug - 23:25:17 10° WNW 23:29:24 18° NNW 23:33:38 10° NNE visible
13 Aug - 01:14:08 10° NNW 01:15:28 11° N 01:16:49 10° N visible
13 Aug - 02:57:47 10° NNW 03:01:39 16° NNE 03:05:27 10° ENE visible
13 Aug - 04:40:27 10° NNW 04:46:36 47° NE 04:52:25 10° ESE visible
13 Aug - 06:24:02 10° NW 06:29:49 39° WSW 06:35:15 10° S daylight
13 Aug - 19:23:31 10° SSE 19:27:50 22° ESE 19:32:23 10° ENE daylight
13 Aug - 21:04:32 10° SW 21:10:24 74° NW 21:16:46 10° NNE visible
13 Aug - 22:50:13 10° W 22:54:49 22° NNW 22:59:37 10° NNE visible
14 Aug - 00:39:02 10° NNW 00:40:43 11° N 00:42:24 10° N visible
14 Aug - 02:23:45 10° N 02:26:59 14° NNE 02:30:12 10° NE visible
14 Aug - 04:06:22 10° NNW 04:12:14 36° NE 04:17:49 10° ESE visible
14 Aug - 05:49:39 10° NW 05:55:48 54° WSW 06:01:33 10° S visible
14 Aug - 18:50:45 10° SE 18:54:00 15° E 18:57:21 10° ENE daylight
14 Aug - 20:30:22 10° SSW 20:36:14 84° ESE 20:42:36 10° NE daylight
14 Aug - 22:15:16 10° W 22:20:18 26° NW 22:25:34 10° NNE visible
15 Aug - 00:03:44 10° NNW 00:05:58 12° NNW 00:08:13 10° N visible
15 Aug - 01:49:41 10° N 01:52:18 12° NNE 01:54:52 10° NE visible
15 Aug - 03:32:19 10° NNW 03:37:49 29° NE 03:43:05 10° E visible
15 Aug - 05:15:23 10° NW 05:21:43 73° WSW 05:27:38 10° SSE visible
15 Aug - 07:01:15 10° WNW 07:03:49 13° W 07:06:19 10° SW daylight
15 Aug - 19:56:22 10° SSW 20:02:07 62° ESE 20:08:20 10° NE daylight
15 Aug - 21:40:28 10° WSW 21:45:51 32° NW 21:51:31 10° NNE visible
15 Aug - 23:28:23 10° NW 23:31:15 13° NNW 23:34:08 10° N visible
16 Aug - 01:15:35 10° N 01:17:34 11° N 01:19:31 10° NNE visible
16 Aug - 02:58:16 10° NNW 03:03:20 24° NE 03:08:13 10° E visible
16 Aug - 04:41:10 10° NNW 04:47:35 85° ENE 04:53:33 10° SE visible
16 Aug - 06:25:53 10° WNW 06:30:01 19° WSW 06:33:57 10° SW daylight
16 Aug - 19:22:33 10° S 19:28:05 45° ESE 19:34:01 10° NE daylight
16 Aug - 21:05:49 10° WSW 21:11:27 41° NW 21:17:27 10° NNE visible
16 Aug - 22:53:06 10° NW 22:56:34 15° NNW 23:00:06 10° NNE visible
17 Aug - 00:41:18 10° N 00:42:48 11° N 00:44:17 10° NNE visible
17 Aug - 02:24:14 10° NNW 02:28:47 20° NNE 02:33:13 10° ENE visible
17 Aug - 04:07:01 10° NNW 04:13:21 64° NE 04:19:17 10° SE visible
17 Aug - 05:51:05 10° NW 05:56:08 26° WSW 06:00:54 10° SSW visible
17 Aug - 18:48:57 10° S 18:54:06 33° ESE 18:59:35 10° NE daylight
17 Aug - 20:31:17 10° SW 20:37:07 53° NW 20:43:21 10° NNE daylight
17 Aug - 22:17:53 10° WNW 22:21:56 18° NNW 22:26:04 10° NNE visible
